Other Surface Observations
Issued by NWS

Home | Current Version | Previous Version | Text Only | Print | Product List | Glossary On
Versions: 1 2 3 4 5 6 7 8 9 10 11 12 13 14 15 16 17 18 19 20 21 22 23 24 25 26 27 28 29 30 31 32 33 34 35 36 37 38 39 40 41 42 43 44 45 46 47 48 49 50
369
SXUS52 KTAE 260119
OSOTAE
OSOTAE
North Florida/South Alabama/Southwest Georgia Weather Roundup
National Weather Service Tallahassee Florida
900 PM EDT TUE APR 25 2017

Note: "fair" indicates few or no clouds below 12,000 feet with no
significant weather and/or obstructions to visibility.

!FLZ017-115-028-034-025-260200
...North Florida...

CITY           SKY/WX    TMP DP  RH WIND       PRES   REMARKS
TALLAHASSEE    PTCLDY    70  58  65 S6        29.77R
APALACHICOLA   CLEAR     68  58  70 CALM      29.80R
PERRY          PTCLDY    68  59  73 CALM      29.81R
CROSS CITY     CLEAR     66  55  68 CALM      29.81S
JACKSONVILLE   MOCLDY    71  55  56 SW6       29.76R
$$

!FLZ112-006-005-002-011-260200
...Florida Panhandle...

CITY           SKY/WX    TMP DP  RH WIND       PRES   REMARKS
MARIANNA       CLEAR     71  56  58 SW7       29.76R
BONIFAY        NOT AVBL
PANAMA CITY NW FAIR      69  58  67 S5        29.78R
TYNDALL AFB    CLEAR     70  59  68 W8        29.79S
TYND DRONE APT FAIR      70  61  72 W7        29.79S
DE FUNIAK SPR  FAIR      68  58  72 SW5       29.78S
EGLIN AFB      CLEAR     71  60  68 SW9       29.77S
DESTIN         CLEAR     74  65  73 VRB5      29.77S
HURLBURT       CLEAR     71  54  54 SW5       29.76S
CRESTVIEW      CLEAR     70  58  65 SW8       29.78R
PENSACOLA      CLEAR     71  57  61 SW9       29.77S
$$

!ALZ063-066-260200
...South Alabama...

CITY           SKY/WX    TMP DP  RH WIND       PRES   REMARKS
DOTHAN         CLEAR     71  55  56 S3        29.79R
OZARK CAIRNS   CLEAR     73  53  50 SE3       29.75S
FT RUCKER HELI CLEAR     67  54  63 CALM      29.75R
RUCKER HELI 3  FAIR      70  53  54 CALM      29.75R
RUCKER HELI 2  FAIR      69  55  60 CALM      29.75R
FLORALA APT    CLEAR     70  57  63 S6        29.78R
ANDALUSIA      CLEAR     71  54  54 CALM      29.74S
TROY           CLEAR     67  58  72 CALM      29.76R
EUFALA         FAIR      65  57  75 CALM      29.74R
MOBILE         PTCLDY    68  56  65 S7        29.78R
$$

!GAZ120>161-260200
...Southwest and South Central Georgia...

CITY           SKY/WX    TMP DP  RH WIND       PRES   REMARKS
THOMASVILLE    FAIR      72  61  68 SW8       29.78R
BAINBRIDGE     CLEAR     72  55  56 SW3       29.76S
MOODY AFB      CLEAR     73  55  52 SW10      29.75R
VALDOSTA       CLEAR     70  57  63 VRB5      29.77R
MOULTRIE       CLEAR     72  57  60 CALM      29.77S
BLAKELY        CLEAR     70  55  60 CALM      29.76S
ALBANY         CLEAR     72  56  57 SW5       29.77R
TIFTON         FAIR      73  56  55 SW3       29.76R
FITZGERALD     FAIR      67  60  80 CALM      29.78R
CORDELE        FAIR      72  60  64 CALM      29.76R
AMERICUS       FAIR      68  55  64 CALM      29.77R
HOMERVILLE     FAIR      70  59  68 CALM      29.77R
$$

!GMZ750-755-770-775-260200
...Coastal and Buoy Obs...

STATION/POSITION TIME  TEMP    WIND        PRES    VSBY  WAVE
                       AIR SEA DIR/SP/G                  HT/PER
                 (UTC) (F)     (DEG/KT/KT) (MB)    (MI)  (FT/S)
KEATON BEACH     0100   71     250/ 11/ 13 1008.9R
CEDAR KEY        0100   71     270/  7/ 10 1010.1R
C TOWER          0100   71     220/  5/  6 1009.8R
APALACHICOLA BUO 0050   72 73  250/  8/ 10 1009.6S         2/ 5
PANAMA CITY BUOY 0050   72 74  250/  8/ 10 1009.1S         2/ 5
MOBILE BUOY      0050   72 75  200/  8/ 12 1008.8S         1/ 3
ORANGE BCH AL BU 0050   71 74  230/ 10/ 12 1008.3R         1/ 4
$$




USA.gov is the U.S. government's official web portal to all federal, state and local government web resources and services.